CAPE
762 753 761 779 747 987 907 1282 1519 1855 1811 1765 1994 2229 2048 1979 2024 2316 2345 1935 1826 1972 1938 1853 1863 2107 1794 2092 2042 2036 1491 1200 740
407 877 914 768 747 953 1015 1147 1457 1893 1910 1936 2090 2047 2578 2550 2279 2285 2421 2134 1918 1794 2157 1775 994 1252 1826 2237 2193 2073 1986 1486 1190
500 505 1013 839 832 1044 995 1106 1420 2019 2028 2011 2205 2259 2370 2795 2761 2558 2567 2831 2389 1767 1971 1580 1040 1449 1873 2436 2526 2286 2031 1758 1324
140 257 903 952 974 1163 953 1020 1612 1943 2206 2267 2345 2640 2845 2894 3112 3060 2735 2807 2825 1966 2425 2354 1994 2281 2396 2455 2489 2357 2096 1868 1811
554 500 315 545 1033 1080 981 1024 1487 1809 2110 2224 2396 2677 2981 2956 3021 3052 2190 2611 2649 2692 2152 2180 2333 2805 2639 2683 2888 2406 2085 1953 1858
167 116 28 113 478 1035 1021 1010 1267 1823 1997 2255 2666 2798 2946 2887 2869 2723 1532 2723 2491 2875 2475 2326 2419 2525 2692 2656 2536 2988 2734 2347 2141
381 90 153 141 263 1066 1170 1242 1408 1717 1994 2452 2724 2652 2502 2784 2819 2696 2699 2800 2695 2291 2664 2791 2592 2630 2742 2810 2882 2880 2841 2915 2328
1092 747 449 358 903 1501 1587 1711 1903 2078 2400 2685 2467 2242 1963 1527 1194 1044 1276 1800 1553 1723 2701 2926 2815 2912 3102 3287 3207 3102 2962 2780 648
1110 1259 1531 1896 2019 2187 2180 2119 2219 2546 2673 2557 2322 2208 1901 1819 1533 1407 1829 2436 2797 2572 2578 2796 2816 2735 2974 2969 2980 2894 2007 524 1
1217 1525 1815 2014 2253 2471 2499 2712 2758 2576 2604 2486 2240 2234 2308 1989 2032 2371 2472 2634 2981 3394 3067 3253 3098 2916 2869 2719 2645 2706 1853 741 502
1419 1874 1808 2131 2511 2642 2794 2765 2962 2930 2889 2687 2537 2224 2323 2750 2876 2964 3179 3167 3032 2967 3247 3393 3424 3272 3037 2835 2682 2365 2056 1775 778
1818 1880 2022 2168 2512 2684 2756 2795 2884 2676 2561 2642 2815 3079 3231 3404 3546 3319 3080 3080 2735 1967 1652 1461 1138 1524 1595 1019 1370 2224 1565 1151 761
1119 2497 2311 2668 2864 2972 2917 2957 2939 2434 2551 2797 3212 3418 3311 3280 3174 2429 1543 1157 1092 1232 1307 916 1606 1067 1240 1212 1119 1305 1149 836 878
1389 1190 1655 2669 2722 2882 2855 2908 2701 2083 2812 2713 2547 2898 2461 1660 1196 876 821 909 1538 1322 974 1117 1269 1260 1238 946 600 651 654 1091 1215
0 274 288 1798 2115 1948 2183 2329 2254 2197 1969 2487 2611 2130 1507 978 826 951 1424 1738 1288 913 1188 1183 1158 1400 506 23 232 247 392 471 964
0 0 363 841 1199 1477 1496 1360 1566 1718 2178 2232 1714 1504 1291 1173 1007 1178 1187 957 1246 1290 1212 1310 671 434 44 27 298 344 195 174 205
448 496 852 1059 1233 1361 1222 1299 2138 2481 2493 1800 1654 1691 1522 1428 1427 1231 1390 1486 1538 1299 1107 112 0 0 0 77 217 451 47 124 251
692 953 1193 1327 1328 1412 1953 2837 2895 2914 2811 2733 2674 2763 2253 1906 1768 1750 1508 1379 1087 253 0 0 0 0 33 163 42 0 0 0 0
1170 921 958 1050 616 696 2214 2069 2185 2351 2345 2426 2249 2239 1573 1072 790 397 262 227 71 0 0 0 0 0 0 0 0 0 0 0 0
2068 1072 913 342 83 1176 1029 32 1714 1744 1839 1799 1635 1309 905 373 267 108 90 10 0 0 0 0 0 0 0 0 0 0 0 0 0
CIN
-76 -95 -92 -73 -64 -69 -90 -133 -149 -146 -140 -117 -98 -85 -68 -56 -43 -24 -22 -23 -17 -21 -22 -37 -58 -45 -48 -35 -23 -17 -45 -51 -57
-134 -79 -77 -49 -51 -79 -95 -114 -151 -173 -160 -136 -110 -108 -79 -65 -55 -34 -23 -22 -23 -29 -29 -45 -91 -83 -69 -40 -23 -20 -32 -51 -57
-131 -135 -73 -47 -46 -72 -111 -106 -147 -154 -153 -138 -117 -115 -103 -68 -59 -48 -30 -17 -19 -18 -31 -46 -88 -71 -62 -25 -17 -25 -43 -53 -71
-131 -131 -56 -40 -34 -85 -119 -135 -140 -144 -150 -138 -133 -124 -92 -70 -48 -37 -33 -20 -10 -21 -16 -28 -40 -38 -26 -24 -20 -32 -50 -60 -55
-70 -52 -154 -60 -35 -78 -107 -160 -166 -176 -160 -154 -151 -122 -90 -63 -56 -67 -41 -20 -14 -15 -21 -22 -19 -13 -14 -16 -15 -43 -61 -64 -41
-178 -336 -541 -356 -88 -78 -104 -150 -183 -150 -164 -156 -146 -126 -90 -59 -70 -63 -94 -39 -30 -12 -28 -35 -31 -29 -30 -33 -37 -18 -31 -40 -32
-169 -330 -304 -299 -196 -99 -109 -150 -158 -155 -150 -164 -166 -148 -126 -74 -49 -53 -45 -29 -28 -35 -20 -17 -30 -34 -31 -28 -31 -20 -9 -5 -13
-54 -106 -135 -219 -178 -121 -136 -144 -160 -151 -150 -161 -197 -177 -159 -180 -188 -168 -151 -99 -90 -77 -22 -8 -8 -6 -5 -4 -6 -5 -7 -7 -93
-50 -48 -86 -95 -106 -133 -153 -156 -164 -172 -174 -173 -169 -173 -185 -186 -183 -172 -124 -73 -44 -45 -41 -26 -16 -11 -6 -7 -6 -4 -32 -137 -4
-67 -92 -123 -128 -143 -162 -183 -186 -189 -179 -166 -165 -183 -184 -155 -131 -101 -81 -65 -48 -35 -22 -27 -20 -21 -20 -16 -17 -18 -15 -45 -156 -211
-82 -122 -148 -150 -177 -185 -199 -197 -184 -185 -175 -170 -187 -157 -121 -76 -57 -49 -32 -27 -29 -34 -23 -13 -9 -9 -9 -9 -12 -12 -37 -51 -148
-81 -147 -148 -154 -179 -190 -191 -190 -204 -182 -185 -175 -150 -96 -71 -62 -37 -31 -39 -31 -26 -51 -57 -57 -61 -48 -32 -45 -34 -17 -29 -65 -120
-402 -115 -133 -128 -163 -169 -173 -192 -199 -182 -166 -141 -95 -60 -41 -37 -28 -52 -80 -96 -91 -77 -66 -70 -45 -47 -37 -29 -30 -39 -63 -78 -96
-121 -311 -193 -155 -166 -152 -166 -168 -176 -170 -127 -124 -113 -78 -88 -113 -118 -123 -118 -98 -71 -72 -71 -65 -40 -30 -24 -28 -41 -55 -116 -112 -55
0 -291 -377 -165 -139 -151 -144 -139 -127 -135 -143 -114 -100 -106 -128 -139 -139 -121 -92 -64 -72 -70 -45 -34 -20 -20 -75 -249 -158 -185 -137 -224 -70
0 0 -286 -171 -164 -125 -128 -142 -117 -109 -101 -97 -118 -117 -124 -118 -119 -89 -70 -75 -45 -26 -23 -21 -20 -61 -221 -251 -116 -113 -203 -194 -141
-304 -303 -102 -148 -143 -115 -112 -106 -50 -38 -64 -102 -106 -102 -104 -104 -79 -77 -48 -34 -17 -13 -21 -103 -1 0 0 -166 -89 -94 -250 -159 -106
-221 -93 -100 -138 -134 -83 -66 -36 -34 -35 -38 -27 -32 -18 -50 -43 -38 -22 -22 -18 -15 -82 0 0 0 0 -102 -154 -91 0 0 0 0
-116 -103 -144 -123 -152 -132 -68 -56 -56 -74 -72 -60 -63 -42 -82 -95 -93 -148 -135 -155 -206 0 0 0 0 0 0 0 0 0 0 0 0
-124 -153 -171 -264 -302 -201 -185 -468 -32 -136 -129 -121 -109 -107 -117 -195 -201 -226 -257 -326 -1 0 0 0 0 0 0 0 0 0 0 0 0
Wind_Speed
21 18 24 25 25 27 27 25 22 21 20 18 17 16 17 14 14 13 13 10 10 13 12 11 13 14 13 14 14 15 15 14 13
26 18 22 24 25 27 26 24 22 21 19 18 18 16 14 12 8 7 5 8 12 12 11 12 12 13 11 12 13 13 13 13 13
28 25 21 28 27 27 25 24 21 19 18 18 17 15 13 8 6 3 2 8 16 14 13 11 11 10 10 10 11 11 11 11 11
29 33 19 28 29 27 24 23 20 18 17 16 15 13 11 9 8 3 5 3 16 16 10 13 11 9 8 8 8 8 7 7 7
20 11 12 23 28 28 25 23 19 18 17 16 15 13 12 14 16 18 24 27 24 20 18 16 8 6 5 5 4 3 3 3 3
15 13 22 22 33 30 24 23 18 16 16 14 13 13 12 15 18 19 20 22 22 20 17 14 10 5 2 1 1 1 2 3 4
15 20 28 25 30 30 21 21 19 17 14 12 11 11 11 12 13 12 14 12 16 16 14 9 7 3 1 2 3 5 6 7 10
11 13 10 17 17 24 20 19 18 16 13 12 11 9 9 9 10 10 12 16 13 11 8 9 6 7 8 7 7 9 11 12 17
10 3 12 19 18 17 19 19 18 15 13 11 10 9 10 11 11 10 11 11 8 5 5 6 8 6 7 7 8 14 25 28 21
10 9 13 13 14 15 17 17 17 14 11 10 10 12 12 10 10 11 12 11 10 9 6 5 6 8 11 10 9 17 21 14 6
7 12 13 11 11 13 13 16 15 13 12 13 14 14 14 14 15 15 14 13 13 12 12 13 13 14 15 17 18 22 18 15 9
5 15 12 12 11 11 15 15 16 16 16 16 17 17 18 18 18 17 16 15 15 16 19 20 22 24 26 27 29 26 17 14 14
16 12 9 10 9 13 16 19 21 19 19 18 17 16 16 16 15 14 14 15 17 19 20 24 25 29 29 31 34 26 14 10 13
28 21 24 10 12 13 17 20 20 18 18 17 15 14 14 13 13 13 14 16 17 20 22 27 28 31 31 32 33 35 21 7 11
27 36 25 8 12 14 16 17 17 15 13 12 12 12 12 12 13 14 13 16 18 21 22 23 30 30 28 32 33 35 32 17 11
41 39 36 13 14 13 14 15 14 14 12 11 10 10 10 11 13 14 16 18 20 22 21 26 27 26 32 33 31 29 26 24 19
33 35 21 13 13 14 14 11 6 7 10 9 8 8 10 12 13 13 14 15 15 17 27 26 27 29 29 29 29 28 32 30 29
27 23 17 15 14 10 9 5 5 6 7 8 8 9 10 12 14 17 20 17 18 23 25 28 28 29 29 30 30 30 30 31 33
26 18 16 15 5 6 8 8 8 6 7 9 12 14 16 18 19 21 22 23 23 25 27 25 27 28 27 27 29 32 34 35 36
14 14 13 5 4 7 10 18 5 8 11 13 15 16 17 18 21 22 21 24 25 24 24 26 28 25 28 31 33 35 36 38 37
Wind_Direction
161 151 155 156 156 156 156 152 147 144 147 144 144 142 151 144 147 139 133 107 108 305 139 117 119 118 110 112 125 118 102 102 113
170 150 152 154 154 154 156 151 147 145 142 142 145 142 134 137 121 124 52 102 143 130 84 91 98 121 105 126 132 119 107 107 119
176 173 155 159 154 150 149 150 145 143 141 141 145 139 138 97 88 75 39 335 171 145 133 116 113 101 103 115 122 114 98 99 100
186 182 155 157 158 151 138 143 140 135 135 134 135 130 112 100 60 20 304 7 285 150 104 134 129 115 99 101 106 107 92 99 108
140 118 350 228 165 154 140 138 138 136 129 128 129 123 109 126 133 147 183 211 193 179 178 175 125 88 86 64 84 94 96 132 113
123 112 120 169 183 164 144 140 137 132 129 119 115 111 104 131 149 159 179 184 182 179 175 169 158 132 115 119 167 234 243 248 308
121 131 149 157 156 161 143 142 141 134 123 110 98 92 78 97 121 128 149 132 154 168 173 156 162 155 177 250 250 260 279 292 313
104 122 113 135 137 141 137 135 131 123 113 106 94 76 73 111 127 127 151 169 167 188 358 351 357 344 336 326 306 302 293 292 313
114 71 104 116 120 124 129 130 127 117 109 96 80 58 72 57 86 113 127 130 115 60 36 7 352 337 333 322 312 321 320 320 23
136 120 121 116 117 116 117 118 118 113 100 86 75 73 77 82 104 115 133 136 140 145 115 80 43 20 4 353 341 339 336 347 345
141 137 135 123 118 108 106 109 109 108 97 88 88 94 93 97 109 107 109 100 93 80 54 42 33 20 12 2 355 345 348 353 355
175 139 139 128 122 114 112 112 111 107 102 99 94 94 94 89 99 88 75 61 39 13 360 357 355 350 345 345 340 343 353 354 354
260 229 149 129 113 110 112 114 115 111 108 101 93 77 69 67 60 43 29 20 8 360 357 348 346 336 340 335 329 346 354 358 3
229 240 240 130 111 111 111 112 113 111 109 99 87 71 57 37 25 21 25 16 9 1 355 344 339 336 336 337 340 336 350 327 342
222 220 225 124 104 109 110 109 110 105 99 91 81 68 50 29 17 11 21 12 5 0 354 353 336 336 343 342 343 341 342 2 5
182 197 189 114 110 115 112 114 114 114 105 96 82 61 42 26 18 14 7 359 356 356 360 349 346 350 341 341 348 353 355 359 360
144 170 130 118 120 131 118 118 106 112 103 96 76 52 32 27 23 18 11 7 9 4 349 351 351 348 349 350 352 355 346 345 341
146 137 125 122 118 104 84 95 87 72 62 50 37 25 21 18 11 0 357 8 5 358 356 351 348 347 349 349 351 352 352 347 343
153 128 130 122 94 31 21 296 299 341 356 354 349 347 346 352 351 348 350 352 353 355 356 4 1 360 0 360 356 351 345 342 339
89 107 120 86 33 34 109 131 349 7 359 349 344 341 344 352 349 351 356 350 350 353 356 359 358 8 3 356 350 345 343 340 338